Heubes-Wetterstation in 44289 Dortmund
Heubes-Wetterstation

Messwerte der letzten 60 Minuten im Minuten-Intervall (Wetterstation 44289 Dortmund)

Datum & Uhrzeit Temp. Feucht. Wind-Ø Böen Sekt.  Regen Rate Luftdruck
20.11.2018 - 16:311.6 °C89%8 km/h 18 km/h O-NO0.0 mm 0.0 mm 1009.1 hPa, gleichbleibend
20.11.2018 - 16:301.7 °C89%8 km/h 11 km/h NO0.0 mm 0.0 mm 1009.1 hPa, gleichbleibend
20.11.2018 - 16:291.7 °C89%8 km/h 14 km/h O0.0 mm 0.0 mm 1009.1 hPa, gleichbleibend
20.11.2018 - 16:281.8 °C89%8 km/h 14 km/h NO0.0 mm 0.0 mm 1009.1 hPa, gleichbleibend
20.11.2018 - 16:271.8 °C88.5%8 km/h 11 km/h NO0.0 mm 0.0 mm 1009.1 hPa, gleichbleibend
20.11.2018 - 16:261.8 °C88%8 km/h 11 km/h NO0.0 mm 0.0 mm 1009.1 hPa, gleichbleibend
20.11.2018 - 16:251.8 °C88%8 km/h 18 km/h O0.0 mm 0.0 mm 1009.1 hPa, langsam steigend
20.11.2018 - 16:241.9 °C88%8 km/h 7 km/h NO0.0 mm 0.0 mm 1009.0 hPa, gleichbleibend
20.11.2018 - 16:231.9 °C88%8 km/h 14 km/h NO0.2 mm 0.0 mm 1009.0 hPa, gleichbleibend
20.11.2018 - 16:221.9 °C88%8 km/h 14 km/h O-NO0.0 mm 0.0 mm 1009.0 hPa, gleichbleibend
20.11.2018 - 16:212.0 °C88%8 km/h 13 km/h NO0.0 mm 0.0 mm 1009.0 hPa, langsam fallend
20.11.2018 - 16:202.0 °C87%8 km/h 21 km/h SO0.0 mm 0.0 mm 1009.1 hPa, gleichbleibend
20.11.2018 - 16:192.1 °C87%8 km/h 13 km/h NO0.0 mm 0.0 mm 1009.1 hPa, gleichbleibend
20.11.2018 - 16:182.1 °C87%8 km/h 18 km/h NO0.0 mm 0.0 mm 1009.1 hPa, gleichbleibend
20.11.2018 - 16:172.2 °C87%8 km/h 14 km/h NO0.0 mm 0.0 mm 1009.1 hPa, gleichbleibend
20.11.2018 - 16:162.2 °C87%8 km/h 10 km/h O-NO0.0 mm 0.0 mm 1009.1 hPa, gleichbleibend
20.11.2018 - 16:152.2 °C86.3%8 km/h 13 km/h O-NO0.0 mm 0.0 mm 1009.1 hPa, gleichbleibend
20.11.2018 - 16:142.3 °C86%8 km/h 21 km/h NO0.0 mm 0.0 mm 1009.1 hPa, langsam fallend
20.11.2018 - 16:132.3 °C86%8 km/h 18 km/h NO0.0 mm 0.0 mm 1009.2 hPa, langsam steigend
20.11.2018 - 16:122.3 °C86%8 km/h 19 km/h N-NO0.0 mm 0.0 mm 1009.1 hPa, gleichbleibend
20.11.2018 - 16:112.4 °C86%9 km/h 16 km/h O-NO0.0 mm 0.0 mm 1009.1 hPa, gleichbleibend
20.11.2018 - 16:102.4 °C85%10 km/h 14 km/h O-NO0.0 mm 0.0 mm 1009.1 hPa, gleichbleibend
20.11.2018 - 16:092.5 °C85%10 km/h 19 km/h O-NO0.0 mm 0.0 mm 1009.1 hPa, gleichbleibend
20.11.2018 - 16:082.5 °C85%10 km/h 14 km/h O-NO0.0 mm 0.0 mm 1009.1 hPa, gleichbleibend
20.11.2018 - 16:072.6 °C85%10 km/h 14 km/h NO0.0 mm 0.0 mm 1009.1 hPa, gleichbleibend
20.11.2018 - 16:062.6 °C85%10 km/h 21 km/h O0.0 mm 0.0 mm 1009.1 hPa, gleichbleibend
20.11.2018 - 16:052.6 °C85%10 km/h 16 km/h O-NO0.0 mm 0.0 mm 1009.1 hPa, gleichbleibend
20.11.2018 - 16:042.7 °C84%10 km/h 19 km/h O-NO0.0 mm 0.0 mm 1009.1 hPa, langsam fallend
20.11.2018 - 16:032.7 °C84%11 km/h 13 km/h NO0.0 mm 0.0 mm 1009.2 hPa, gleichbleibend
20.11.2018 - 16:022.7 °C84%11 km/h 13 km/h O-NO0.0 mm 0.0 mm 1009.2 hPa, gleichbleibend
20.11.2018 - 16:012.8 °C83.5%10 km/h 21 km/h O0.0 mm 0.0 mm 1009.2 hPa, gleichbleibend
20.11.2018 - 16:002.8 °C83%10 km/h 16 km/h NO0.0 mm 0.0 mm 1009.2 hPa, gleichbleibend
20.11.2018 - 15:592.8 °C83%10 km/h 14 km/h O-NO0.0 mm 0.0 mm 1009.2 hPa, gleichbleibend
20.11.2018 - 15:582.8 °C83%10 km/h 19 km/h NO0.0 mm 0.0 mm 1009.2 hPa, gleichbleibend
20.11.2018 - 15:572.8 °C83%10 km/h 16 km/h NO0.0 mm 0.0 mm 1009.2 hPa, gleichbleibend
20.11.2018 - 15:562.8 °C83%10 km/h 23 km/h O-NO0.0 mm 0.0 mm 1009.2 hPa, gleichbleibend
20.11.2018 - 15:552.9 °C83%10 km/h 18 km/h NO0.0 mm 0.0 mm 1009.2 hPa, gleichbleibend
20.11.2018 - 15:542.9 °C82%10 km/h 24 km/h O0.0 mm 0.0 mm 1009.2 hPa, gleichbleibend
20.11.2018 - 15:532.9 °C82%10 km/h 21 km/h O-NO0.0 mm 0.0 mm 1009.2 hPa, gleichbleibend
20.11.2018 - 15:522.9 °C82%10 km/h 13 km/h N-NO0.0 mm 0.0 mm 1009.2 hPa, gleichbleibend
20.11.2018 - 15:512.9 °C82%10 km/h 11 km/h O-SO0.0 mm 0.0 mm 1009.2 hPa, gleichbleibend
20.11.2018 - 15:502.9 °C82%10 km/h 16 km/h O-NO0.0 mm 0.0 mm 1009.2 hPa, gleichbleibend
20.11.2018 - 15:492.9 °C82%10 km/h 10 km/h O-NO0.0 mm 0.0 mm 1009.2 hPa, gleichbleibend
20.11.2018 - 15:482.9 °C82%10 km/h 14 km/h NO0.0 mm 0.0 mm 1009.2 hPa, gleichbleibend
20.11.2018 - 15:473.0 °C82%10 km/h 18 km/h O-NO0.0 mm 0.0 mm 1009.2 hPa, gleichbleibend
20.11.2018 - 15:463.0 °C81%10 km/h 14 km/h NO0.0 mm 0.0 mm 1009.2 hPa, gleichbleibend
20.11.2018 - 15:453.0 °C81%10 km/h 21 km/h O-NO0.0 mm 0.0 mm 1009.2 hPa, gleichbleibend
20.11.2018 - 15:443.0 °C81%9 km/h 23 km/h O-NO0.0 mm 0.0 mm 1009.2 hPa, gleichbleibend
20.11.2018 - 15:433.0 °C81%9 km/h 23 km/h NO0.0 mm 0.0 mm 1009.2 hPa, gleichbleibend
20.11.2018 - 15:423.1 °C81%10 km/h 19 km/h N-NO0.0 mm 0.0 mm 1009.2 hPa, gleichbleibend
20.11.2018 - 15:413.1 °C81%10 km/h 24 km/h NO0.0 mm 0.0 mm 1009.3 hPa, langsam fallend
20.11.2018 - 15:403.1 °C81%10 km/h 11 km/h NO0.0 mm 0.0 mm 1009.4 hPa, langsam steigend
20.11.2018 - 15:393.1 °C81%10 km/h 14 km/h O-NO0.0 mm 0.0 mm 1009.3 hPa, gleichbleibend
20.11.2018 - 15:383.1 °C81%10 km/h 8 km/h N-NO0.0 mm 0.0 mm 1009.2 hPa, gleichbleibend
20.11.2018 - 15:373.1 °C81%11 km/h 13 km/h N-NO0.0 mm 0.0 mm 1009.2 hPa, gleichbleibend
20.11.2018 - 15:363.1 °C81%11 km/h 14 km/h NO0.0 mm 0.0 mm 1009.3 hPa, gleichbleibend
20.11.2018 - 15:353.1 °C81%11 km/h 18 km/h NO0.0 mm 0.0 mm 1009.3 hPa, gleichbleibend
20.11.2018 - 15:343.1 °C81%11 km/h 16 km/h NO0.0 mm 0.0 mm 1009.3 hPa, gleichbleibend
20.11.2018 - 15:333.1 °C80.5%11 km/h 21 km/h O-SO0.0 mm 0.0 mm 1009.3 hPa, gleichbleibend
20.11.2018 - 15:323.2 °C80%11 km/h 23 km/h O-NO0.0 mm 0.0 mm 1009.3 hPa, langsam fallend